STARLINK-1542, 46073

Orbit data source: Space-Track

STARLINK-1542, 46073 is a payload satellite owned by SpaceX/Seattle (US) in LEO that was launched on Fri, 07 Aug 2020 UTC via an FALCON 9 launch vehicle from the Air Force Eastern Test Range (AFETR). Payload-class satellites include a variety of spacecraft equipped with specific instruments for various scientific and technological missions. These include communications satellites like Starlink; space stations such as the ISS; scientific satellites like the Hubble; Earth observation satellites from companies like Planet Labs, Umbra, and HawkEye 360; GPS; miniature CubeSats for education and research; and military/defense satellites.

Loading next visibility...
Identifier
46073, 2020-055AY
Orbit
LEO
Country
Flag of USUS
Related business
Manufacturer
SpaceX/Seattle
Mission
Operational Commercial Communications
Bus & Motor
STARLINK, Unknown motor
Mass
260 kg wet, ~248 kg dry
Launch date (UTC)
2020-08-07 (6 years ago)
Launch vehicle
FALCON 9
Launch site
Air Force Eastern Test Range (AFETR)
Object type
Payload
Rocket body
Debris
Shape & HBR
Box + 1 Pan, 10.1 m
Radar Cross Section
13.562 m², Large (>1 m²)

Expand to show TLE details & history
Last TLE update: 12 hours ago

TLE from 12 hours ago
0 STARLINK-1542
1 46073U 20055AY  26237.79727968 -.00023028  00000-0 -73386-3 0  9994
2 46073  53.1618  37.7863 0002750  78.7758 281.3552 15.31639446335094
Epoch: 2026-08-25T19:08Z
TLE epoch observation values (Epoch: 2026-08-25T19:08:04.964Z)
Latitude
-0.00005°
Longitude
136.70611°
Altitude
471.451 km
Speed
7.632 km/s
True Right ascension
02h 31m 08s
True Declination
0° 00' 00"
Sunlit
Object was in full shadow at epoch
Visualization orbit readout
Latitude
Unknown
Longitude
Unknown
Altitude
Unknown
Speed
Unknown
Apparent Right ascension
Unknown
Apparent Declination
Unknown
Sunlit
N/A
Visualization observer readout
Local Sidereal Time
22:14:20
Azimuth
Unknown
Elevation
Unknown
Doppler factor
Unknown
Orbital elements
Apogee altitude
473.06 km
Perigee altitude
469.293 km
Semi-major axis
6,849.314 km
Eccentricity
0.00028
Inclination
53.1618°
RAAN
37.7863°
Arg. of periapsis
78.7758°
True anomaly
281.3243°
Mean anomaly
281.3552°
Eccentric anomaly
281.33975°
Mean motion
3.82889 °/min
Orbital period
94.02 mins
BSTAR
-0.00073386
Loading maneuver chart data...
Computing Atmospheric mass density...
Loading historical data...
Loading historical data...
Loading historical data...
Loading historical data...
Loading historical data...
Loading historical data...
Loading historical data...

Documentation

Showing up to 5 results
|